FW7752 Weather Reports


Display with metric or nautical units.
time (UTC)temp
F
wind
direction
speed
MPH
gust
MPH
rain 1hr
in
rain 24hr
in
rain mn
in
humidity
%
barometer
mb
20260505055116 67 181 3.0 7.0 0.00 0.00 0.00 65 1004.4
20260505054614 67 187 4.0 7.0 0.00 0.00 0.00 65 1004.5
20260505054112 67 179 5.0 6.0 0.00 0.00 0.00 65 1004.6
20260505053609 68 196 4.0 7.0 0.00 0.00 0.00 65 1004.8
20260505053105 68 198 3.0 4.0 0.00 0.00 0.00 64 1005.0
20260505052602 68 170 4.0 5.0 0.00 0.00 0.00 64 1004.8
20260505052100 68 178 5.0 6.0 0.00 0.00 0.00 64 1004.8
20260505051557 68 210 3.0 3.0 0.00 0.00 0.00 64 1005.2
20260505051055 68 201 2.0 3.0 0.00 0.00 0.00 64 1005.1
20260505050552 68 180 3.0 4.0 0.00 0.00 0.00 64 1004.6
20260505041520 69 66 2.0 3.0 0.00 0.00 0.00 62 1005.2
20260505041018 69 156 2.0 5.0 0.00 0.00 0.00 62 1005.3
20260505040515 69 232 0.0 5.0 0.00 0.00 0.00 62 1004.7
20260505040012 69 175 9.0 9.0 0.00 0.00 0.00 62 1004.8
20260505035508 69 164 3.0 9.0 0.00 0.00 0.00 63 1004.8
20260505035005 69 180 7.0 8.0 0.00 0.00 0.00 62 1004.8
20260505034501 69 187 7.0 13.0 0.00 0.00 0.00 62 1004.8
20260505033958 69 180 4.0 8.0 0.00 0.00 0.00 63 1005.2
20260505033455 69 178 7.0 8.0 0.00 0.00 0.00 62 1005.1
20260505032953 69 157 5.0 10.0 0.00 0.00 0.00 61 1005.3
20260505032450 69 167 6.0 9.0 0.00 0.00 0.00 62 1005.2
20260505031946 69 172 4.0 8.0 0.00 0.00 0.00 61 1005.2
20260505031444 70 182 5.0 5.0 0.00 0.00 0.00 60 1005.2
20260505030941 70 161 5.0 6.0 0.00 0.00 0.00 60 1005.2
20260505030436 70 180 6.0 9.0 0.00 0.00 0.00 59 1005.1
20260505025932 71 177 6.0 7.0 0.00 0.00 0.00 59 1005.2
20260505025429 71 171 8.0 9.0 0.00 0.00 0.00 58 1005.3
20260505024928 71 181 3.0 5.0 0.00 0.00 0.00 57 1005.2
20260505024425 71 195 2.0 5.0 0.00 0.00 0.00 56 1005.3
20260505023922 72 221 4.0 8.0 0.00 0.00 0.00 56 1005.0
20260505023419 72 228 4.0 5.0 0.00 0.00 0.00 55 1004.7
20260505022916 72 225 4.0 6.0 0.00 0.00 0.00 55 1005.0
20260505022414 72 206 7.0 9.0 0.00 0.00 0.00 54 1004.7
20260505021911 73 203 5.0 9.0 0.00 0.00 0.00 54 1004.7
20260505021407 73 179 6.0 11.0 0.00 0.00 0.00 54 1004.7
20260505020903 73 180 3.0 9.0 0.00 0.00 0.00 54 1004.5
20260505020358 73 187 5.0 14.0 0.00 0.00 0.00 53 1004.5
20260505015856 73 225 6.0 6.0 0.00 0.00 0.00 53 1004.6
20260505015353 73 204 5.0 11.0 0.00 0.00 0.00 52 1004.6
20260505014850 73 197 4.0 8.0 0.00 0.00 0.00 52 1004.2
20260505014347 73 188 7.0 10.0 0.00 0.00 0.00 52 1004.1
20260505013844 74 198 3.0 9.0 0.00 0.00 0.00 51 1004.2
20260505013341 74 212 6.0 8.0 0.00 0.00 0.00 51 1004.4
20260505012839 74 205 4.0 7.0 0.00 0.00 0.00 50 1004.1
20260505012337 74 211 4.0 8.0 0.00 0.00 0.00 50 1004.3
20260505011832 74 241 3.0 7.0 0.00 0.00 0.00 51 1004.3
20260505011330 74 203 4.0 5.0 0.00 0.00 0.00 51 1004.1
20260505010825 74 222 4.0 6.0 0.00 0.00 0.00 51 1003.8
20260505010321 74 191 4.0 5.0 0.00 0.00 0.00 51 1003.8
20260505005818 74 218 4.0 6.0 0.00 0.00 0.00 51 1003.8
20260505005315 74 175 2.0 4.0 0.00 0.00 0.00 51 1003.9
20260505004812 75 189 3.0 3.0 0.00 0.00 0.00 51 1003.8
20260505004308 75 174 3.0 4.0 0.00 0.00 0.00 50 1003.8
20260505003806 75 223 2.0 3.0 0.00 0.00 0.00 49 1003.8
20260505003303 76 181 2.0 5.0 0.00 0.00 0.00 49 1003.6
20260505002759 76 226 4.0 7.0 0.00 0.00 0.00 48 1003.4
20260505002256 76 237 3.0 9.0 0.00 0.00 0.00 47 1003.6
20260505001754 77 193 2.0 6.0 0.00 0.00 0.00 47 1003.6
20260505001251 77 213 3.0 9.0 0.00 0.00 0.00 46 1003.6
20260505000748 77 243 8.0 10.0 0.00 0.00 0.00 45 1003.5
20260505000246 77 216 9.0 9.0 0.00 0.00 0.00 45 1003.7
20260504235743 77 223 9.0 12.0 0.00 0.00 0.00 45 1003.5
20260504235239 78 214 8.0 11.0 0.00 0.00 0.00 45 1003.7
20260504234736 77 206 9.0 11.0 0.00 0.00 0.00 46 1003.8
20260504234233 78 226 8.0 12.0 0.00 0.00 0.00 46 1003.8
20260504233730 78 217 9.0 11.0 0.00 0.00 0.00 46 1003.7
20260504233225 78 241 11.0 13.0 0.00 0.00 0.00 45 1003.6
20260504232723 79 188 9.0 13.0 0.00 0.00 0.00 44 1003.8
20260504232220 80 213 4.0 10.0 0.00 0.00 0.00 46 1003.7
20260504231716 80 212 7.0 14.0 0.00 0.00 0.00 44 1003.6
20260504231213 80 195 4.0 13.0 0.00 0.00 0.00 45 1003.9
20260504230709 80 237 13.0 13.0 0.00 0.00 0.00 43 1003.8
20260504230208 80 195 7.0 10.0 0.00 0.00 0.00 44 1004.0
20260504225706 80 192 9.0 11.0 0.00 0.00 0.00 44 1003.8
20260504225202 80 242 14.0 19.0 0.00 0.00 0.00 43 1003.8
20260504224659 80 213 4.0 10.0 0.00 0.00 0.00 45 1003.8
20260504224156 80 222 5.0 11.0 0.00 0.00 0.00 44 1003.8
20260504223653 80 202 5.0 14.0 0.00 0.00 0.00 45 1003.7
20260504223148 80 202 4.0 13.0 0.00 0.00 0.00 45 1003.7
20260504222645 80 197 12.0 20.0 0.00 0.00 0.00 43 1003.8
20260504222142 81 255 8.0 17.0 0.00 0.00 0.00 43 1003.9
20260504221640 81 200 12.0 22.0 0.00 0.00 0.00 42 1004.0
20260504221137 81 226 7.0 13.0 0.00 0.00 0.00 44 1003.9
20260504220633 81 210 3.0 12.0 0.00 0.00 0.00 46 1003.9
20260504220131 80 229 10.0 13.0 0.00 0.00 0.00 44 1003.8
20260504215626 80 170 6.0 16.0 0.00 0.00 0.00 45 1003.8
20260504215124 80 206 13.0 20.0 0.00 0.00 0.00 43 1003.9
20260504214620 80 180 10.0 17.0 0.00 0.00 0.00 43 1003.6
20260504214117 80 209 11.0 15.0 0.00 0.00 0.00 44 1004.0
20260504213613 80 197 10.0 17.0 0.00 0.00 0.00 43 1004.0
20260504213110 80 180 10.0 13.0 0.00 0.00 0.00 45 1004.1
20260504212606 80 256 7.0 12.0 0.00 0.00 0.00 45 1003.9
20260504212103 80 213 10.0 17.0 0.00 0.00 0.00 44 1003.9
20260504211600 80 246 8.0 16.0 0.00 0.00 0.00 43 1004.0
20260504211057 80 234 14.0 18.0 0.00 0.00 0.00 42 1004.1
20260504210555 80 228 4.0 11.0 0.00 0.00 0.00 43 1004.1
20260504210051 81 221 7.0 17.0 0.00 0.00 0.00 42 1004.1
20260504205549 81 208 9.0 18.0 0.00 0.00 0.00 42 1004.3
20260504205046 81 230 12.0 15.0 0.00 0.00 0.00 44 1004.3
20260504204544 80 212 7.0 20.0 0.00 0.00 0.00 42 1004.3
20260504204043 80 217 13.0 21.0 0.00 0.00 0.00 44 1004.5
20260504203541 80 233 9.0 20.0 0.00 0.00 0.00 42 1004.4
20260504203038 80 196 8.0 17.0 0.00 0.00 0.00 44 1004.8
20260504202533 80 222 6.0 10.0 0.00 0.00 0.00 42 1004.4
20260504202031 80 249 12.0 18.0 0.00 0.00 0.00 42 1004.8
20260504201527 80 226 4.0 10.0 0.00 0.00 0.00 46 1005.0
20260504201025 80 230 7.0 22.0 0.00 0.00 0.00 42 1005.1
20260504200521 80 211 12.0 24.0 0.00 0.00 0.00 43 1005.0
20260504200018 80 241 8.0 21.0 0.00 0.00 0.00 43 1005.0
20260504195514 80 226 7.0 15.0 0.00 0.00 0.00 44 1004.8
20260504195011 80 211 13.0 20.0 0.00 0.00 0.00 43 1005.0
20260504194508 80 223 15.0 16.0 0.00 0.00 0.00 43 1004.8
20260504194003 80 245 9.0 17.0 0.00 0.00 0.00 43 1005.1
20260504193500 80 244 6.0 15.0 0.00 0.00 0.00 43 1005.1
20260504192959 80 193 7.0 12.0 0.00 0.00 0.00 43 1005.2
20260504192456 79 227 15.0 23.0 0.00 0.00 0.00 43 1005.5
20260504191955 80 175 12.0 24.0 0.00 0.00 0.00 42 1005.4
20260504191452 79 216 7.0 18.0 0.00 0.00 0.00 45 1005.2
20260504190947 80 189 9.0 20.0 0.00 0.00 0.00 45 1005.3
20260504190443 80 253 10.0 14.0 0.00 0.00 0.00 45 1005.2
20260504185940 80 223 13.0 21.0 0.00 0.00 0.00 43 1005.3
20260504185438 79 212 8.0 17.0 0.00 0.00 0.00 43 1005.3
20260504184933 79 232 16.0 22.0 0.00 0.00 0.00 42 1005.3
20260504184429 79 233 14.0 18.0 0.00 0.00 0.00 43 1005.4
20260504183925 80 206 11.0 17.0 0.00 0.00 0.00 44 1005.6
20260504183423 79 213 10.0 18.0 0.00 0.00 0.00 45 1005.6
20260504182921 79 221 3.0 15.0 0.00 0.00 0.00 46 1005.7
20260504182417 79 234 20.0 23.0 0.00 0.00 0.00 43 1005.6
20260504181914 79 246 9.0 14.0 0.00 0.00 0.00 44 1005.5
20260504181412 79 223 11.0 17.0 0.00 0.00 0.00 45 1005.4
20260504180910 79 259 18.0 21.0 0.00 0.00 0.00 44 1005.5
20260504180409 79 232 9.0 16.0 0.00 0.00 0.00 44 1005.5
20260504175906 78 240 13.0 19.0 0.00 0.00 0.00 43 1005.5
20260504175403 79 213 11.0 21.0 0.00 0.00 0.00 44 1005.5
20260504174901 79 201 8.0 12.0 0.00 0.00 0.00 46 1005.5
20260504174358 78 271 13.0 24.0 0.00 0.00 0.00 43 1005.5
20260504173855 78 236 4.0 15.0 0.00 0.00 0.00 45 1005.5
20260504173351 78 249 12.0 20.0 0.00 0.00 0.00 45 1005.5
20260504172849 78 221 12.0 19.0 0.00 0.00 0.00 45 1005.5
20260504172345 78 231 11.0 26.0 0.00 0.00 0.00 46 1005.5
20260504171841 78 233 12.0 18.0 0.00 0.00 0.00 46 1005.3
20260504171339 77 237 10.0 23.0 0.00 0.00 0.00 45 1005.4
20260504170836 77 218 21.0 24.0 0.00 0.00 0.00 44 1005.5
20260504170332 77 187 11.0 23.0 0.00 0.00 0.00 44 1005.6
20260504160251 76 199 10.0 15.0 0.00 0.00 0.00 46 1005.8
20260504150716 73 230 5.0 16.0 0.00 0.00 0.00 45 1006.2
20260504150213 73 193 7.0 11.0 0.00 0.00 0.00 50 1006.2
20260504141142 70 217 15.0 17.0 0.00 0.00 0.00 49 1006.9
20260504140639 69 191 9.0 13.0 0.00 0.00 0.00 49 1007.0
20260504140134 69 192 8.0 11.0 0.00 0.00 0.00 50 1006.9
20260504130603 66 216 11.0 17.0 0.00 0.00 0.00 52 1007.5
20260504110450 65 181 3.0 11.0 0.00 0.00 0.00 52 1007.8
20260504100413 66 179 9.0 12.0 0.00 0.00 0.00 50 1008.1
20260504081806 67 234 6.0 16.0 0.00 0.00 0.00 48 1008.0
20260504081303 67 186 6.0 9.0 0.00 0.00 0.00 49 1008.0
20260504080759 68 225 8.0 10.0 0.00 0.00 0.00 48 1008.1
20260504080255 68 170 4.0 16.0 0.00 0.00 0.00 49 1008.2
20260504070223 68 187 4.0 8.0 0.00 0.00 0.00 51 1008.8
20260504060143 68 214 4.0 10.0 0.00 0.00 0.00 51 1009.2